Time,TemperatureF,DewpointF,PressureIn,WindDirection,WindDirectionDegrees,WindSpeedMPH,WindSpeedGustMPH,Humidity,HourlyPrecipIn,Conditions,Clouds,dailyrainin,SoftwareType,DateUTC
2013-11-11 00:00:00,50.1,29.0,30.25,NNE,23,1.0,-999.0,44,0.00,,,0.00,Wunderground v.1.15,2013-11-11 05:00:00,
2013-11-11 00:05:00,50.1,29.0,30.25,NNE,23,1.0,-999.0,44,0.00,,,0.00,Wunderground v.1.15,2013-11-11 05:05:00,
2013-11-11 00:10:00,50.1,29.0,30.25,NNE,23,1.0,-999.0,44,0.00,,,0.00,Wunderground v.1.15,2013-11-11 05:10:00,
2013-11-11 00:15:00,50.1,29.0,30.25,NNE,23,1.0,-999.0,44,0.00,,,0.00,Wunderground v.1.15,2013-11-11 05:15:00,
2013-11-11 00:20:00,50.1,29.0,30.25,NNE,23,1.0,-999.0,44,0.00,,,0.00,Wunderground v.1.15,2013-11-11 05:20:00,
2013-11-11 00:25:00,50.1,29.0,30.25,NNE,23,1.0,-999.0,44,0.00,,,0.00,Wunderground v.1.15,2013-11-11 05:25:00,
2013-11-11 00:30:00,50.1,29.0,30.25,NNE,23,1.0,-999.0,44,0.00,,,0.00,Wunderground v.1.15,2013-11-11 05:30:00,
2013-11-11 00:35:00,50.1,29.0,30.25,NNE,23,1.0,-999.0,44,0.00,,,0.00,Wunderground v.1.15,2013-11-11 05:35:00,
2013-11-11 00:40:00,50.1,29.0,30.25,NNE,23,1.0,-999.0,44,0.00,,,0.00,Wunderground v.1.15,2013-11-11 05:40:00,
2013-11-11 00:45:00,49.0,28.6,30.25,NNE,23,1.0,-999.0,45,0.00,,,0.00,Wunderground v.1.15,2013-11-11 05:45:00,
2013-11-11 00:50:00,49.0,28.6,30.25,NNE,23,1.0,-999.0,45,0.00,,,0.00,Wunderground v.1.15,2013-11-11 05:50:00,
2013-11-11 00:55:00,49.0,28.6,30.25,NNE,23,1.0,-999.0,45,0.00,,,0.00,Wunderground v.1.15,2013-11-11 05:55:00,
2013-11-11 01:00:00,49.0,28.6,30.25,NNE,23,1.0,-999.0,45,0.00,,,0.00,Wunderground v.1.15,2013-11-11 06:00:00,
2013-11-11 01:05:00,49.0,28.6,30.25,NNE,23,1.0,-999.0,45,0.00,,,0.00,Wunderground v.1.15,2013-11-11 06:05:00,
2013-11-11 01:10:00,49.0,28.6,30.25,NNE,23,1.0,-999.0,45,0.00,,,0.00,Wunderground v.1.15,2013-11-11 06:10:00,
2013-11-11 01:15:00,48.1,27.7,30.24,NE,45,1.0,-999.0,45,0.00,,,0.00,Wunderground v.1.15,2013-11-11 06:15:00,
2013-11-11 01:20:00,48.1,27.7,30.24,NE,45,1.0,-999.0,45,0.00,,,0.00,Wunderground v.1.15,2013-11-11 06:20:00,
2013-11-11 01:25:00,48.1,27.7,30.24,NE,45,1.0,-999.0,45,0.00,,,0.00,Wunderground v.1.15,2013-11-11 06:25:00,
2013-11-11 01:30:00,48.1,27.7,30.24,NE,45,1.0,-999.0,45,0.00,,,0.00,Wunderground v.1.15,2013-11-11 06:30:00,
2013-11-11 01:35:00,48.1,27.7,30.24,NE,45,1.0,-999.0,45,0.00,,,0.00,Wunderground v.1.15,2013-11-11 06:35:00,
2013-11-11 01:40:00,48.1,27.7,30.24,NE,45,1.0,-999.0,45,0.00,,,0.00,Wunderground v.1.15,2013-11-11 06:40:00,
2013-11-11 01:45:00,47.4,27.1,30.24,NNE,23,2.0,-999.0,45,0.00,,,0.00,Wunderground v.1.15,2013-11-11 06:45:00,
2013-11-11 01:50:00,47.4,27.1,30.24,NNE,23,2.0,-999.0,45,0.00,,,0.00,Wunderground v.1.15,2013-11-11 06:50:00,
2013-11-11 01:55:00,47.4,27.1,30.24,NNE,23,2.0,-999.0,45,0.00,,,0.00,Wunderground v.1.15,2013-11-11 06:55:00,
2013-11-11 02:00:00,47.4,27.1,30.24,NNE,23,2.0,-999.0,45,0.00,,,0.00,Wunderground v.1.15,2013-11-11 07:00:00,
2013-11-11 02:05:00,47.4,27.1,30.24,NNE,23,2.0,-999.0,45,0.00,,,0.00,Wunderground v.1.15,2013-11-11 07:05:00,
2013-11-11 02:10:00,47.4,27.1,30.24,NNE,23,2.0,-999.0,45,0.00,,,0.00,Wunderground v.1.15,2013-11-11 07:10:00,
2013-11-11 02:15:00,46.8,26.6,30.24,NNE,23,1.0,-999.0,45,0.00,,,0.00,Wunderground v.1.15,2013-11-11 07:15:00,
2013-11-11 02:20:00,46.8,26.6,30.24,NNE,23,1.0,-999.0,45,0.00,,,0.00,Wunderground v.1.15,2013-11-11 07:20:00,
2013-11-11 02:25:00,46.8,26.6,30.24,NNE,23,1.0,-999.0,45,0.00,,,0.00,Wunderground v.1.15,2013-11-11 07:25:00,
2013-11-11 02:30:00,46.8,26.6,30.24,NNE,23,1.0,-999.0,45,0.00,,,0.00,Wunderground v.1.15,2013-11-11 07:30:00,
2013-11-11 02:35:00,46.8,26.6,30.24,NNE,23,1.0,-999.0,45,0.00,,,0.00,Wunderground v.1.15,2013-11-11 07:35:00,
2013-11-11 02:40:00,46.8,26.6,30.24,NNE,23,1.0,-999.0,45,0.00,,,0.00,Wunderground v.1.15,2013-11-11 07:40:00,
2013-11-11 02:45:00,46.9,26.6,30.25,NNE,23,1.0,-999.0,45,0.00,,,0.00,Wunderground v.1.15,2013-11-11 07:45:00,
2013-11-11 02:50:00,46.9,26.6,30.25,NNE,23,1.0,-999.0,45,0.00,,,0.00,Wunderground v.1.15,2013-11-11 07:50:00,
2013-11-11 02:55:00,46.9,26.6,30.25,NNE,23,1.0,-999.0,45,0.00,,,0.00,Wunderground v.1.15,2013-11-11 07:55:00,
2013-11-11 03:00:00,46.9,26.6,30.25,NNE,23,1.0,-999.0,45,0.00,,,0.00,Wunderground v.1.15,2013-11-11 08:00:00,
2013-11-11 03:05:00,46.9,26.6,30.25,NNE,23,1.0,-999.0,45,0.00,,,0.00,Wunderground v.1.15,2013-11-11 08:05:00,
2013-11-11 03:10:00,46.9,26.6,30.25,NNE,23,1.0,-999.0,45,0.00,,,0.00,Wunderground v.1.15,2013-11-11 08:10:00,
2013-11-11 03:15:00,46.1,26.4,30.26,NNE,23,1.0,-999.0,46,0.00,,,0.00,Wunderground v.1.15,2013-11-11 08:15:00,
2013-11-11 03:20:00,46.1,26.4,30.26,NNE,23,1.0,-999.0,46,0.00,,,0.00,Wunderground v.1.15,2013-11-11 08:20:00,
2013-11-11 03:25:00,46.1,26.4,30.26,NNE,23,1.0,-999.0,46,0.00,,,0.00,Wunderground v.1.15,2013-11-11 08:25:00,
2013-11-11 03:30:00,46.1,26.4,30.26,NNE,23,1.0,-999.0,46,0.00,,,0.00,Wunderground v.1.15,2013-11-11 08:30:00,
2013-11-11 03:35:00,46.1,26.4,30.26,NNE,23,1.0,-999.0,46,0.00,,,0.00,Wunderground v.1.15,2013-11-11 08:35:00,
2013-11-11 03:40:00,46.1,26.4,30.26,NNE,23,1.0,-999.0,46,0.00,,,0.00,Wunderground v.1.15,2013-11-11 08:40:00,
2013-11-11 03:45:00,44.3,27.8,30.26,North,0,0.0,-999.0,52,0.00,,,0.00,Wunderground v.1.15,2013-11-11 08:45:00,
2013-11-11 03:50:00,44.3,27.8,30.26,North,0,0.0,-999.0,52,0.00,,,0.00,Wunderground v.1.15,2013-11-11 08:50:00,
2013-11-11 03:55:00,44.3,27.8,30.26,North,0,0.0,-999.0,52,0.00,,,0.00,Wunderground v.1.15,2013-11-11 08:55:00,
2013-11-11 04:00:00,44.3,27.8,30.26,North,0,0.0,-999.0,52,0.00,,,0.00,Wunderground v.1.15,2013-11-11 09:00:00,
2013-11-11 04:05:00,44.3,27.8,30.26,North,0,0.0,-999.0,52,0.00,,,0.00,Wunderground v.1.15,2013-11-11 09:05:00,
2013-11-11 04:10:00,44.3,27.8,30.26,North,0,0.0,-999.0,52,0.00,,,0.00,Wunderground v.1.15,2013-11-11 09:10:00,
2013-11-11 04:15:00,42.0,28.3,30.28,North,0,0.0,-999.0,58,0.00,,,0.00,Wunderground v.1.15,2013-11-11 09:15:00,
2013-11-11 04:20:00,42.0,28.3,30.28,North,0,0.0,-999.0,58,0.00,,,0.00,Wunderground v.1.15,2013-11-11 09:20:00,
2013-11-11 04:25:00,42.0,28.3,30.28,North,0,0.0,-999.0,58,0.00,,,0.00,Wunderground v.1.15,2013-11-11 09:25:00,
2013-11-11 04:30:00,42.0,28.3,30.28,North,0,0.0,-999.0,58,0.00,,,0.00,Wunderground v.1.15,2013-11-11 09:30:00,
2013-11-11 04:35:00,42.0,28.3,30.28,North,0,0.0,-999.0,58,0.00,,,0.00,Wunderground v.1.15,2013-11-11 09:35:00,
2013-11-11 04:40:00,42.0,28.3,30.28,North,0,0.0,-999.0,58,0.00,,,0.00,Wunderground v.1.15,2013-11-11 09:40:00,
2013-11-11 04:45:00,40.6,28.2,30.28,North,0,0.0,-999.0,61,0.00,,,0.00,Wunderground v.1.15,2013-11-11 09:45:00,
2013-11-11 04:50:00,40.6,28.2,30.28,North,0,0.0,-999.0,61,0.00,,,0.00,Wunderground v.1.15,2013-11-11 09:50:00,
2013-11-11 04:55:00,40.6,28.2,30.28,North,0,0.0,-999.0,61,0.00,,,0.00,Wunderground v.1.15,2013-11-11 09:55:00,
2013-11-11 05:00:00,40.6,28.2,30.28,North,0,0.0,-999.0,61,0.00,,,0.00,Wunderground v.1.15,2013-11-11 10:00:00,
2013-11-11 05:05:00,40.6,28.2,30.28,North,0,0.0,-999.0,61,0.00,,,0.00,Wunderground v.1.15,2013-11-11 10:05:00,
2013-11-11 05:10:00,40.6,28.2,30.28,North,0,0.0,-999.0,61,0.00,,,0.00,Wunderground v.1.15,2013-11-11 10:10:00,
2013-11-11 05:15:00,42.1,29.2,30.29,ENE,68,0.0,-999.0,60,0.00,,,0.00,Wunderground v.1.15,2013-11-11 10:15:00,
2013-11-11 05:20:00,42.1,29.2,30.29,ENE,68,0.0,-999.0,60,0.00,,,0.00,Wunderground v.1.15,2013-11-11 10:20:00,
2013-11-11 05:25:00,42.1,29.2,30.29,ENE,68,0.0,-999.0,60,0.00,,,0.00,Wunderground v.1.15,2013-11-11 10:25:00,
2013-11-11 05:30:00,42.1,29.2,30.29,ENE,68,0.0,-999.0,60,0.00,,,0.00,Wunderground v.1.15,2013-11-11 10:30:00,
2013-11-11 05:35:00,42.1,29.2,30.29,ENE,68,0.0,-999.0,60,0.00,,,0.00,Wunderground v.1.15,2013-11-11 10:35:00,
2013-11-11 05:40:00,42.1,29.2,30.29,ENE,68,0.0,-999.0,60,0.00,,,0.00,Wunderground v.1.15,2013-11-11 10:40:00,
2013-11-11 05:45:00,42.0,29.1,30.30,ENE,68,0.0,-999.0,60,0.00,,,0.00,Wunderground v.1.15,2013-11-11 10:45:00,
2013-11-11 05:50:00,42.0,29.1,30.30,ENE,68,0.0,-999.0,60,0.00,,,0.00,Wunderground v.1.15,2013-11-11 10:50:00,
2013-11-11 05:55:00,42.0,29.1,30.30,ENE,68,0.0,-999.0,60,0.00,,,0.00,Wunderground v.1.15,2013-11-11 10:55:00,
2013-11-11 06:00:00,42.0,29.1,30.30,ENE,68,0.0,-999.0,60,0.00,,,0.00,Wunderground v.1.15,2013-11-11 11:00:00,
2013-11-11 06:05:00,42.0,29.1,30.30,ENE,68,0.0,-999.0,60,0.00,,,0.00,Wunderground v.1.15,2013-11-11 11:05:00,
2013-11-11 06:10:00,42.0,29.1,30.30,ENE,68,0.0,-999.0,60,0.00,,,0.00,Wunderground v.1.15,2013-11-11 11:10:00,
2013-11-11 06:15:00,42.1,28.8,30.31,ENE,68,0.0,-999.0,59,0.00,,,0.00,Wunderground v.1.15,2013-11-11 11:15:00,
2013-11-11 06:20:00,42.1,28.8,30.31,ENE,68,0.0,-999.0,59,0.00,,,0.00,Wunderground v.1.15,2013-11-11 11:20:00,
2013-11-11 06:25:00,42.1,28.8,30.31,ENE,68,0.0,-999.0,59,0.00,,,0.00,Wunderground v.1.15,2013-11-11 11:25:00,
2013-11-11 06:30:00,42.1,28.8,30.31,ENE,68,0.0,-999.0,59,0.00,,,0.00,Wunderground v.1.15,2013-11-11 11:30:00,
2013-11-11 06:35:00,42.1,28.8,30.31,ENE,68,0.0,-999.0,59,0.00,,,0.00,Wunderground v.1.15,2013-11-11 11:35:00,
2013-11-11 06:40:00,42.1,28.8,30.31,ENE,68,0.0,-999.0,59,0.00,,,0.00,Wunderground v.1.15,2013-11-11 11:40:00,
2013-11-11 06:45:00,41.5,28.6,30.33,ENE,68,0.0,-999.0,60,0.00,,,0.00,Wunderground v.1.15,2013-11-11 11:45:00,
2013-11-11 06:50:00,41.5,28.6,30.33,ENE,68,0.0,-999.0,60,0.00,,,0.00,Wunderground v.1.15,2013-11-11 11:50:00,
2013-11-11 06:55:00,41.5,28.6,30.33,ENE,68,0.0,-999.0,60,0.00,,,0.00,Wunderground v.1.15,2013-11-11 11:55:00,
2013-11-11 07:00:00,41.5,28.6,30.33,ENE,68,0.0,-999.0,60,0.00,,,0.00,Wunderground v.1.15,2013-11-11 12:00:00,
2013-11-11 07:05:00,41.5,28.6,30.33,ENE,68,0.0,-999.0,60,0.00,,,0.00,Wunderground v.1.15,2013-11-11 12:05:00,
2013-11-11 07:10:00,41.5,28.6,30.33,ENE,68,0.0,-999.0,60,0.00,,,0.00,Wunderground v.1.15,2013-11-11 12:10:00,
2013-11-11 08:10:00,43.7,30.7,30.35,East,86,1.0,1.0,60,0.00,,,0.00,Wunderground v.1.15,2013-11-11 13:10:00,
2013-11-11 08:15:00,44.1,31.1,30.35,ENE,62,1.0,1.0,60,0.00,,,0.00,Wunderground v.1.15,2013-11-11 13:15:00,
2013-11-11 08:20:00,44.3,31.3,30.35,NNE,17,0.0,0.0,60,0.00,,,0.00,Wunderground v.1.15,2013-11-11 13:20:00,
2013-11-11 08:25:00,44.6,31.1,30.35,NE,38,1.0,1.0,59,0.00,,,0.00,Wunderground v.1.15,2013-11-11 13:25:00,
2013-11-11 08:30:00,44.9,31.4,30.35,NNW,341,1.0,1.0,59,0.00,,,0.00,Wunderground v.1.15,2013-11-11 13:30:00,
2013-11-11 08:35:00,45.1,31.6,30.36,NNE,16,0.0,1.0,59,0.00,,,0.00,Wunderground v.1.15,2013-11-11 13:35:00,
2013-11-11 08:40:00,45.3,31.8,30.35,NE,53,0.0,0.0,59,0.00,,,0.00,Wunderground v.1.15,2013-11-11 13:40:00,
2013-11-11 08:45:00,45.6,32.1,30.35,NE,53,0.0,0.0,59,0.00,,,0.00,Wunderground v.1.15,2013-11-11 13:45:00,
2013-11-11 08:50:00,46.0,32.0,30.35,NE,52,0.0,1.0,58,0.00,,,0.00,Wunderground v.1.15,2013-11-11 13:50:00,
2013-11-11 08:55:00,46.6,32.2,30.35,SE,132,1.0,2.0,57,0.00,,,0.00,Wunderground v.1.15,2013-11-11 13:55:00,
2013-11-11 09:00:00,47.4,31.6,30.35,NE,50,1.0,1.0,54,0.00,,,0.00,Wunderground v.1.15,2013-11-11 14:00:00,
2013-11-11 09:10:00,49.0,31.6,30.35,NE,53,1.0,3.0,51,0.00,,,0.00,Wunderground v.1.15,2013-11-11 14:10:00,
2013-11-11 09:15:00,49.3,31.4,30.35,NE,55,1.0,3.0,50,0.00,,,0.00,Wunderground v.1.15,2013-11-11 14:15:00,
2013-11-11 09:20:00,49.8,32.4,30.35,NNE,21,1.0,1.0,51,0.00,,,0.00,Wunderground v.1.15,2013-11-11 14:20:00,
2013-11-11 09:25:00,50.2,31.8,30.35,NE,51,1.0,1.0,49,0.00,,,0.00,Wunderground v.1.15,2013-11-11 14:25:00,
2013-11-11 09:30:00,50.7,31.7,30.36,ENE,61,1.0,2.0,48,0.00,,,0.00,Wunderground v.1.15,2013-11-11 14:30:00,
2013-11-11 09:35:00,51.4,32.9,30.36,ESE,105,0.0,2.0,49,0.00,,,0.00,Wunderground v.1.15,2013-11-11 14:35:00,
2013-11-11 09:40:00,52.1,32.5,30.36,ESE,119,0.0,0.0,47,0.00,,,0.00,Wunderground v.1.15,2013-11-11 14:40:00,
2013-11-11 09:45:00,52.5,31.2,30.35,East,82,1.0,1.0,44,0.00,,,0.00,Wunderground v.1.15,2013-11-11 14:45:00,
2013-11-11 09:50:00,52.4,31.7,30.35,East,89,1.0,1.0,45,0.00,,,0.00,Wunderground v.1.15,2013-11-11 14:50:00,
2013-11-11 09:55:00,52.8,31.5,30.35,ENE,57,1.0,1.0,44,0.00,,,0.00,Wunderground v.1.15,2013-11-11 14:55:00,
2013-11-11 10:00:00,53.1,33.4,30.35,NNE,28,1.0,1.0,47,0.00,,,0.00,Wunderground v.1.15,2013-11-11 15:00:00,
2013-11-11 10:05:00,53.5,33.2,30.35,ESE,107,1.0,5.0,46,0.00,,,0.00,Wunderground v.1.15,2013-11-11 15:05:00,
2013-11-11 10:10:00,53.9,33.6,30.35,SSW,197,0.0,5.0,46,0.00,,,0.00,Wunderground v.1.15,2013-11-11 15:10:00,
2013-11-11 10:15:00,54.3,33.9,30.35,SSE,153,0.0,5.0,46,0.00,,,0.00,Wunderground v.1.15,2013-11-11 15:15:00,
2013-11-11 10:20:00,54.8,33.8,30.35,East,93,0.0,5.0,45,0.00,,,0.00,Wunderground v.1.15,2013-11-11 15:20:00,
2013-11-11 10:25:00,55.4,35.5,30.35,East,93,0.0,5.0,47,0.00,,,0.00,Wunderground v.1.15,2013-11-11 15:25:00,
2013-11-11 10:30:00,55.7,32.9,30.35,WNW,294,0.0,5.0,42,0.00,,,0.00,Wunderground v.1.15,2013-11-11 15:30:00,
2013-11-11 10:35:00,55.7,32.9,30.35,SE,145,0.0,5.0,42,0.00,,,0.00,Wunderground v.1.15,2013-11-11 15:35:00,
2013-11-11 10:40:00,55.5,30.9,30.35,South,174,1.0,1.0,39,0.00,,,0.00,Wunderground v.1.15,2013-11-11 15:40:00,
2013-11-11 10:50:00,55.3,32.0,30.34,SSW,193,0.0,5.0,41,0.00,,,0.00,Wunderground v.1.15,2013-11-11 15:50:00,
2013-11-11 10:55:00,55.4,30.8,30.34,SE,128,0.0,5.0,39,0.00,,,0.00,Wunderground v.1.15,2013-11-11 15:55:00,
2013-11-11 11:00:00,55.3,31.4,30.34,ESE,109,1.0,1.0,40,0.00,,,0.00,Wunderground v.1.15,2013-11-11 16:00:00,
2013-11-11 11:05:00,55.3,30.7,30.34,SSE,165,0.0,5.0,39,0.00,,,0.00,Wunderground v.1.15,2013-11-11 16:05:00,
2013-11-11 11:10:00,55.7,31.7,30.34,SSE,148,0.0,5.0,40,0.00,,,0.00,Wunderground v.1.15,2013-11-11 16:10:00,
2013-11-11 11:15:00,55.7,30.5,30.34,SE,140,0.0,5.0,38,0.00,,,0.00,Wunderground v.1.15,2013-11-11 16:15:00,
2013-11-11 11:20:00,56.0,33.2,30.34,ENE,74,0.0,5.0,42,0.00,,,0.00,Wunderground v.1.15,2013-11-11 16:20:00,
2013-11-11 11:25:00,56.3,31.0,30.34,SSE,161,0.0,5.0,38,0.00,,,0.00,Wunderground v.1.15,2013-11-11 16:25:00,
2013-11-11 11:30:00,56.6,33.2,30.33,ESE,107,0.0,5.0,41,0.00,,,0.00,Wunderground v.1.15,2013-11-11 16:30:00,
2013-11-11 11:35:00,56.8,32.1,30.33,ESE,122,0.0,5.0,39,0.00,,,0.00,Wunderground v.1.15,2013-11-11 16:35:00,
2013-11-11 11:40:00,57.1,34.2,30.33,SSE,155,0.0,5.0,42,0.00,,,0.00,Wunderground v.1.15,2013-11-11 16:40:00,
2013-11-11 11:45:00,56.9,33.4,30.33,SSW,192,1.0,5.0,41,0.00,,,0.00,Wunderground v.1.15,2013-11-11 16:45:00,
2013-11-11 11:50:00,56.9,33.4,30.32,SSW,210,1.0,1.0,41,0.00,,,0.00,Wunderground v.1.15,2013-11-11 16:50:00,
2013-11-11 11:55:00,56.7,32.6,30.32,West,259,1.0,5.0,40,0.00,,,0.00,Wunderground v.1.15,2013-11-11 16:55:00,
2013-11-11 12:05:00,55.4,32.1,30.31,West,269,1.0,3.0,41,0.00,,,0.00,Wunderground v.1.15,2013-11-11 17:05:00,
2013-11-11 12:10:00,53.9,30.7,30.31,WSW,252,2.0,2.0,41,0.00,,,0.00,Wunderground v.1.15,2013-11-11 17:10:00,
2013-11-11 12:15:00,54.1,33.8,30.30,WSW,243,2.0,3.0,46,0.00,,,0.00,Wunderground v.1.15,2013-11-11 17:15:00,
2013-11-11 12:20:00,54.5,31.9,30.29,SE,128,1.0,5.0,42,0.00,,,0.00,Wunderground v.1.15,2013-11-11 17:20:00,
2013-11-11 12:25:00,55.0,32.9,30.29,WSW,246,1.0,5.0,43,0.00,,,0.00,Wunderground v.1.15,2013-11-11 17:25:00,
2013-11-11 12:30:00,55.2,33.1,30.28,WNW,295,1.0,5.0,43,0.00,,,0.00,Wunderground v.1.15,2013-11-11 17:30:00,
2013-11-11 12:35:00,55.5,33.3,30.28,SSE,160,1.0,5.0,43,0.00,,,0.00,Wunderground v.1.15,2013-11-11 17:35:00,
2013-11-11 12:40:00,55.9,32.5,30.28,SW,225,1.0,1.0,41,0.00,,,0.00,Wunderground v.1.15,2013-11-11 17:40:00,
2013-11-11 12:45:00,55.8,32.4,30.28,WSW,248,1.0,3.0,41,0.00,,,0.00,Wunderground v.1.15,2013-11-11 17:45:00,
2013-11-11 12:50:00,55.5,33.3,30.28,WSW,246,1.0,1.0,43,0.00,,,0.00,Wunderground v.1.15,2013-11-11 17:50:00,
2013-11-11 12:55:00,55.7,31.1,30.28,SSE,151,1.0,5.0,39,0.00,,,0.00,Wunderground v.1.15,2013-11-11 17:55:00,
2013-11-11 13:00:00,55.7,31.1,30.27,SW,220,1.0,1.0,39,0.00,,,0.00,Wunderground v.1.15,2013-11-11 18:00:00,
2013-11-11 13:05:00,55.8,30.5,30.27,SW,233,2.0,3.0,38,0.00,,,0.00,Wunderground v.1.15,2013-11-11 18:05:00,
2013-11-11 13:10:00,55.9,30.6,30.27,WSW,248,3.0,5.0,38,0.00,,,0.00,Wunderground v.1.15,2013-11-11 18:10:00,
2013-11-11 13:15:00,56.0,33.8,30.26,WSW,244,2.0,5.0,43,0.00,,,0.00,Wunderground v.1.15,2013-11-11 18:15:00,
2013-11-11 13:20:00,56.3,31.0,30.26,West,271,1.0,1.0,38,0.00,,,0.00,Wunderground v.1.15,2013-11-11 18:20:00,
2013-11-11 13:25:00,56.5,31.8,30.26,WSW,244,1.0,3.0,39,0.00,,,0.00,Wunderground v.1.15,2013-11-11 18:25:00,
2013-11-11 13:30:00,55.9,30.0,30.25,SW,234,2.0,5.0,37,0.00,,,0.00,Wunderground v.1.15,2013-11-11 18:30:00,
2013-11-11 13:35:00,55.5,30.3,30.25,WSW,244,4.0,5.0,38,0.00,,,0.00,Wunderground v.1.15,2013-11-11 18:35:00,
2013-11-11 13:40:00,55.4,30.2,30.24,WSW,247,3.0,3.0,38,0.00,,,0.00,Wunderground v.1.15,2013-11-11 18:40:00,
2013-11-11 13:45:00,55.3,30.1,30.24,WSW,238,2.0,5.0,38,0.00,,,0.00,Wunderground v.1.15,2013-11-11 18:45:00,
2013-11-11 13:50:00,55.6,34.0,30.24,SW,217,1.0,5.0,44,0.00,,,0.00,Wunderground v.1.15,2013-11-11 18:50:00,
2013-11-11 13:55:00,55.9,34.3,30.23,West,275,1.0,5.0,44,0.00,,,0.00,Wunderground v.1.15,2013-11-11 18:55:00,
2013-11-11 14:00:00,56.1,33.3,30.23,West,275,1.0,5.0,42,0.00,,,0.00,Wunderground v.1.15,2013-11-11 19:00:00,
2013-11-11 14:05:00,56.2,35.7,30.23,WSW,257,1.0,5.0,46,0.00,,,0.00,Wunderground v.1.15,2013-11-11 19:05:00,
2013-11-11 14:10:00,56.3,33.5,30.23,West,269,1.0,1.0,42,0.00,,,0.00,Wunderground v.1.15,2013-11-11 19:10:00,
2013-11-11 14:15:00,56.4,34.2,30.23,West,269,1.0,5.0,43,0.00,,,0.00,Wunderground v.1.15,2013-11-11 19:15:00,
2013-11-11 14:20:00,56.5,33.7,30.23,West,265,1.0,1.0,42,0.00,,,0.00,Wunderground v.1.15,2013-11-11 19:20:00,
2013-11-11 14:25:00,56.5,33.7,30.23,West,265,1.0,2.0,42,0.00,,,0.00,Wunderground v.1.15,2013-11-11 19:25:00,
2013-11-11 14:30:00,56.5,31.2,30.23,WSW,243,1.0,1.0,38,0.00,,,0.00,Wunderground v.1.15,2013-11-11 19:30:00,
2013-11-11 14:35:00,56.5,31.8,30.22,SW,216,1.0,5.0,39,0.00,,,0.00,Wunderground v.1.15,2013-11-11 19:35:00,
2013-11-11 14:40:00,56.5,31.2,30.22,West,275,1.0,1.0,38,0.00,,,0.00,Wunderground v.1.15,2013-11-11 19:40:00,
2013-11-11 14:50:00,56.9,32.2,30.22,WSW,256,0.0,5.0,39,0.00,,,0.00,Wunderground v.1.15,2013-11-11 19:50:00,
2013-11-11 14:55:00,57.1,33.0,30.22,WNW,296,0.0,5.0,40,0.00,,,0.00,Wunderground v.1.15,2013-11-11 19:55:00,
2013-11-11 15:00:00,57.4,33.9,30.21,WNW,293,1.0,1.0,41,0.00,,,0.00,Wunderground v.1.15,2013-11-11 20:00:00,
2013-11-11 15:05:00,57.6,35.2,30.21,WSW,246,1.0,2.0,43,0.00,,,0.00,Wunderground v.1.15,2013-11-11 20:05:00,
2013-11-11 15:10:00,57.6,34.1,30.21,SW,234,1.0,1.0,41,0.00,,,0.00,Wunderground v.1.15,2013-11-11 20:10:00,
2013-11-11 15:15:00,57.7,31.6,30.21,WSW,258,2.0,2.0,37,0.00,,,0.00,Wunderground v.1.15,2013-11-11 20:15:00,
2013-11-11 15:20:00,57.7,31.6,30.21,WSW,257,3.0,3.0,37,0.00,,,0.00,Wunderground v.1.15,2013-11-11 20:20:00,
2013-11-11 15:25:00,57.8,31.0,30.21,WSW,252,2.0,5.0,36,0.00,,,0.00,Wunderground v.1.15,2013-11-11 20:25:00,
2013-11-11 15:30:00,58.0,32.5,30.21,West,261,2.0,2.0,38,0.00,,,0.00,Wunderground v.1.15,2013-11-11 20:30:00,
2013-11-11 15:35:00,58.2,33.3,30.21,WSW,250,2.0,5.0,39,0.00,,,0.00,Wunderground v.1.15,2013-11-11 20:35:00,
2013-11-11 15:40:00,58.4,32.2,30.21,WSW,250,1.0,5.0,37,0.00,,,0.00,Wunderground v.1.15,2013-11-11 20:40:00,
2013-11-11 15:45:00,58.6,31.0,30.21,West,278,1.0,5.0,35,0.00,,,0.00,Wunderground v.1.15,2013-11-11 20:45:00,
2013-11-11 15:50:00,58.7,31.1,30.21,WSW,249,1.0,5.0,35,0.00,,,0.00,Wunderground v.1.15,2013-11-11 20:50:00,
2013-11-11 15:55:00,58.7,31.8,30.21,WSW,249,1.0,5.0,36,0.00,,,0.00,Wunderground v.1.15,2013-11-11 20:55:00,
2013-11-11 16:00:00,58.8,31.9,30.21,WSW,248,1.0,1.0,36,0.00,,,0.00,Wunderground v.1.15,2013-11-11 21:00:00,
2013-11-11 16:05:00,58.9,32.7,30.21,WSW,248,1.0,2.0,37,0.00,,,0.00,Wunderground v.1.15,2013-11-11 21:05:00,
2013-11-11 16:10:00,59.2,31.5,30.21,WSW,248,1.0,1.0,35,0.00,,,0.00,Wunderground v.1.15,2013-11-11 21:10:00,
2013-11-11 16:15:00,59.5,32.5,30.21,WSW,248,1.0,5.0,36,0.00,,,0.00,Wunderground v.1.15,2013-11-11 21:15:00,
2013-11-11 16:20:00,59.7,32.0,30.21,WSW,248,0.0,5.0,35,0.00,,,0.00,Wunderground v.1.15,2013-11-11 21:20:00,
2013-11-11 16:25:00,59.9,32.9,30.21,WSW,248,0.0,5.0,36,0.00,,,0.00,Wunderground v.1.15,2013-11-11 21:25:00,
2013-11-11 16:30:00,60.1,33.7,30.20,WSW,248,0.0,5.0,37,0.00,,,0.00,Wunderground v.1.15,2013-11-11 21:30:00,
2013-11-11 16:35:00,60.3,35.2,30.20,WSW,248,0.0,5.0,39,0.00,,,0.00,Wunderground v.1.15,2013-11-11 21:35:00,
2013-11-11 16:40:00,60.3,35.9,30.20,WSW,248,0.0,5.0,40,0.00,,,0.00,Wunderground v.1.15,2013-11-11 21:40:00,
2013-11-11 16:45:00,60.2,35.8,30.20,WSW,248,0.0,5.0,40,0.00,,,0.00,Wunderground v.1.15,2013-11-11 21:45:00,
2013-11-11 16:50:00,60.0,37.4,30.20,WSW,248,0.0,5.0,43,0.00,,,0.00,Wunderground v.1.15,2013-11-11 21:50:00,
2013-11-11 16:55:00,59.5,36.4,30.20,WSW,248,0.0,5.0,42,0.00,,,0.00,Wunderground v.1.15,2013-11-11 21:55:00,
2013-11-11 17:00:00,58.9,37.0,30.19,WSW,248,0.0,5.0,44,0.00,,,0.00,Wunderground v.1.15,2013-11-11 22:00:00,
2013-11-11 17:05:00,58.1,36.3,30.19,WSW,248,0.0,5.0,44,0.00,,,0.00,Wunderground v.1.15,2013-11-11 22:05:00,
2013-11-11 17:10:00,57.3,36.7,30.19,WSW,248,0.0,0.0,46,0.00,,,0.00,Wunderground v.1.15,2013-11-11 22:10:00,
2013-11-11 17:15:00,56.3,35.8,30.19,WSW,248,0.0,0.0,46,0.00,,,0.00,Wunderground v.1.15,2013-11-11 22:15:00,
2013-11-11 17:20:00,55.4,35.5,30.20,WSW,248,0.0,0.0,47,0.00,,,0.00,Wunderground v.1.15,2013-11-11 22:20:00,
2013-11-11 17:25:00,54.6,35.8,30.20,WSW,248,0.0,0.0,49,0.00,,,0.00,Wunderground v.1.15,2013-11-11 22:25:00,
2013-11-11 17:30:00,53.8,35.6,30.20,WSW,248,0.0,0.0,50,0.00,,,0.00,Wunderground v.1.15,2013-11-11 22:30:00,
2013-11-11 17:35:00,53.0,34.8,30.20,WSW,248,0.0,0.0,50,0.00,,,0.00,Wunderground v.1.15,2013-11-11 22:35:00,
2013-11-11 17:40:00,52.3,34.2,30.20,WSW,248,0.0,0.0,50,0.00,,,0.00,Wunderground v.1.15,2013-11-11 22:40:00,
2013-11-11 17:45:00,51.9,34.3,30.20,WSW,248,0.0,0.0,51,0.00,,,0.00,Wunderground v.1.15,2013-11-11 22:45:00,
2013-11-11 17:50:00,51.4,33.9,30.19,WSW,248,0.0,0.0,51,0.00,,,0.00,Wunderground v.1.15,2013-11-11 22:50:00,
2013-11-11 17:55:00,51.0,34.0,30.19,WSW,248,0.0,0.0,52,0.00,,,0.00,Wunderground v.1.15,2013-11-11 22:55:00,
2013-11-11 18:00:00,50.6,34.1,30.19,WSW,248,0.0,0.0,53,0.00,,,0.00,Wunderground v.1.15,2013-11-11 23:00:00,
2013-11-11 18:05:00,50.3,34.3,30.19,WSW,248,0.0,0.0,54,0.00,,,0.00,Wunderground v.1.15,2013-11-11 23:05:00,
2013-11-11 18:10:00,49.9,34.8,30.19,WSW,248,0.0,0.0,56,0.00,,,0.00,Wunderground v.1.15,2013-11-11 23:10:00,
2013-11-11 18:15:00,49.7,34.6,30.19,WSW,248,0.0,0.0,56,0.00,,,0.00,Wunderground v.1.15,2013-11-11 23:15:00,
2013-11-11 18:20:00,49.5,34.9,30.19,WSW,248,0.0,0.0,57,0.00,,,0.00,Wunderground v.1.15,2013-11-11 23:20:00,
2013-11-11 18:25:00,49.4,34.8,30.19,WSW,248,0.0,0.0,57,0.00,,,0.00,Wunderground v.1.15,2013-11-11 23:25:00,
2013-11-11 18:30:00,49.3,35.1,30.19,WSW,248,0.0,0.0,58,0.00,,,0.00,Wunderground v.1.15,2013-11-11 23:30:00,
2013-11-11 18:35:00,49.3,35.1,30.19,WSW,248,0.0,0.0,58,0.00,,,0.00,Wunderground v.1.15,2013-11-11 23:35:00,
2013-11-11 18:40:00,49.2,35.5,30.19,WSW,248,0.0,0.0,59,0.00,,,0.00,Wunderground v.1.15,2013-11-11 23:40:00,
2013-11-11 18:45:00,49.2,35.9,30.19,WSW,248,0.0,0.0,60,0.00,,,0.00,Wunderground v.1.15,2013-11-11 23:45:00,
2013-11-11 18:50:00,49.1,35.8,30.19,WSW,248,0.0,0.0,60,0.00,,,0.00,Wunderground v.1.15,2013-11-11 23:50:00,
2013-11-11 18:55:00,49.1,35.8,30.19,WSW,248,0.0,0.0,60,0.00,,,0.00,Wunderground v.1.15,2013-11-11 23:55:00,
2013-11-11 19:00:00,49.1,36.2,30.19,WSW,248,0.0,0.0,61,0.00,,,0.00,Wunderground v.1.15,2013-11-12 00:00:00,
2013-11-11 19:05:00,49.0,36.1,30.19,WSW,248,0.0,0.0,61,0.00,,,0.00,Wunderground v.1.15,2013-11-12 00:05:00,
2013-11-11 19:10:00,49.0,36.1,30.19,WSW,248,0.0,0.0,61,0.00,,,0.00,Wunderground v.1.15,2013-11-12 00:10:00,
2013-11-11 19:15:00,49.0,36.5,30.19,WSW,248,0.0,0.0,62,0.00,,,0.00,Wunderground v.1.15,2013-11-12 00:15:00,
2013-11-11 19:20:00,48.9,36.4,30.19,WSW,248,0.0,0.0,62,0.00,,,0.00,Wunderground v.1.15,2013-11-12 00:20:00,
2013-11-11 19:25:00,48.8,36.4,30.19,WSW,248,0.0,0.0,62,0.00,,,0.00,Wunderground v.1.15,2013-11-12 00:25:00,
2013-11-11 19:30:00,48.8,36.4,30.19,WSW,248,0.0,0.0,62,0.00,,,0.00,Wunderground v.1.15,2013-11-12 00:30:00,
2013-11-11 19:35:00,48.7,36.3,30.19,WSW,248,0.0,0.0,62,0.00,,,0.00,Wunderground v.1.15,2013-11-12 00:35:00,
2013-11-11 19:40:00,48.7,35.8,30.19,WSW,248,0.0,0.0,61,0.00,,,0.00,Wunderground v.1.15,2013-11-12 00:40:00,
2013-11-11 19:50:00,48.5,36.1,30.19,WSW,248,0.0,0.0,62,0.00,,,0.00,Wunderground v.1.15,2013-11-12 00:50:00,
2013-11-11 19:55:00,48.4,36.0,30.19,WSW,248,0.0,0.0,62,0.00,,,0.00,Wunderground v.1.15,2013-11-12 00:55:00,
2013-11-11 20:00:00,48.3,35.9,30.19,WSW,248,0.0,0.0,62,0.00,,,0.00,Wunderground v.1.15,2013-11-12 01:00:00,
2013-11-11 20:10:00,48.2,35.8,30.18,WSW,248,0.0,0.0,62,0.00,,,0.00,Wunderground v.1.15,2013-11-12 01:10:00,
2013-11-11 20:15:00,48.1,35.7,30.18,WSW,248,0.0,0.0,62,0.00,,,0.00,Wunderground v.1.15,2013-11-12 01:15:00,
2013-11-11 20:20:00,48.0,36.0,30.18,WSW,248,0.0,0.0,63,0.00,,,0.00,Wunderground v.1.15,2013-11-12 01:20:00,
2013-11-11 20:25:00,47.9,36.3,30.18,WSW,248,0.0,0.0,64,0.00,,,0.00,Wunderground v.1.15,2013-11-12 01:25:00,
2013-11-11 20:30:00,47.9,36.3,30.18,WSW,248,0.0,0.0,64,0.00,,,0.00,Wunderground v.1.15,2013-11-12 01:30:00,
2013-11-11 20:35:00,47.8,36.2,30.18,WSW,248,0.0,0.0,64,0.00,,,0.00,Wunderground v.1.15,2013-11-12 01:35:00,
2013-11-11 20:40:00,47.8,36.2,30.18,WSW,248,0.0,0.0,64,0.00,,,0.00,Wunderground v.1.15,2013-11-12 01:40:00,
2013-11-11 20:45:00,47.7,36.1,30.18,WSW,248,0.0,0.0,64,0.00,,,0.00,Wunderground v.1.15,2013-11-12 01:45:00,
2013-11-11 20:50:00,47.6,36.0,30.18,WSW,248,0.0,0.0,64,0.00,,,0.00,Wunderground v.1.15,2013-11-12 01:50:00,
2013-11-11 20:55:00,47.6,36.4,30.18,WSW,248,0.0,0.0,65,0.00,,,0.00,Wunderground v.1.15,2013-11-12 01:55:00,
2013-11-11 21:00:00,47.5,35.9,30.18,WSW,248,0.0,0.0,64,0.00,,,0.00,Wunderground v.1.15,2013-11-12 02:00:00,
2013-11-11 21:05:00,47.4,35.8,30.18,WSW,248,0.0,0.0,64,0.00,,,0.00,Wunderground v.1.15,2013-11-12 02:05:00,
2013-11-11 21:10:00,47.3,35.7,30.19,WSW,248,0.0,0.0,64,0.00,,,0.00,Wunderground v.1.15,2013-11-12 02:10:00,
2013-11-11 21:15:00,47.2,36.4,30.19,WSW,248,0.0,0.0,66,0.00,,,0.00,Wunderground v.1.15,2013-11-12 02:15:00,
2013-11-11 21:20:00,47.1,35.9,30.18,WSW,248,0.0,0.0,65,0.00,,,0.00,Wunderground v.1.15,2013-11-12 02:20:00,
2013-11-11 21:25:00,47.1,35.9,30.18,WSW,248,0.0,0.0,65,0.00,,,0.00,Wunderground v.1.15,2013-11-12 02:25:00,
2013-11-11 21:30:00,47.0,35.8,30.18,WSW,248,0.0,0.0,65,0.00,,,0.00,Wunderground v.1.15,2013-11-12 02:30:00,
2013-11-11 21:35:00,47.0,36.2,30.18,WSW,248,0.0,0.0,66,0.00,,,0.00,Wunderground v.1.15,2013-11-12 02:35:00,
2013-11-11 21:40:00,47.0,36.2,30.18,WSW,248,0.0,0.0,66,0.00,,,0.00,Wunderground v.1.15,2013-11-12 02:40:00,
2013-11-11 21:45:00,46.9,36.5,30.18,WSW,248,0.0,0.0,67,0.00,,,0.00,Wunderground v.1.15,2013-11-12 02:45:00,
2013-11-11 21:50:00,46.8,36.0,30.18,WSW,248,0.0,0.0,66,0.00,,,0.00,Wunderground v.1.15,2013-11-12 02:50:00,
2013-11-11 21:55:00,46.7,35.9,30.18,WSW,248,0.0,0.0,66,0.00,,,0.00,Wunderground v.1.15,2013-11-12 02:55:00,
2013-11-11 22:10:00,46.3,35.9,30.18,WSW,248,0.0,0.0,67,0.00,,,0.00,Wunderground v.1.15,2013-11-12 03:10:00,
2013-11-11 22:15:00,46.2,35.8,30.18,WSW,248,0.0,0.0,67,0.00,,,0.00,Wunderground v.1.15,2013-11-12 03:15:00,
2013-11-11 22:20:00,46.1,36.1,30.18,WSW,248,0.0,0.0,68,0.00,,,0.00,Wunderground v.1.15,2013-11-12 03:20:00,
2013-11-11 22:30:00,46.1,36.1,30.18,WSW,248,0.0,-999.0,68,0.00,,,0.00,Wunderground v.1.15,2013-11-12 03:30:00,
2013-11-11 22:35:00,46.1,36.1,30.18,WSW,248,0.0,-999.0,68,0.00,,,0.00,Wunderground v.1.15,2013-11-12 03:35:00,
2013-11-11 22:40:00,46.1,36.1,30.18,WSW,248,0.0,-999.0,68,0.00,,,0.00,Wunderground v.1.15,2013-11-12 03:40:00,
2013-11-11 22:45:00,50.0,37.1,30.17,West,270,1.0,-999.0,61,0.00,,,0.00,Wunderground v.1.15,2013-11-12 03:45:00,
2013-11-11 22:50:00,50.0,37.1,30.17,West,270,1.0,-999.0,61,0.00,,,0.00,Wunderground v.1.15,2013-11-12 03:50:00,
2013-11-11 22:55:00,50.0,37.1,30.17,West,270,1.0,-999.0,61,0.00,,,0.00,Wunderground v.1.15,2013-11-12 03:55:00,
2013-11-11 23:00:00,50.0,37.1,30.17,West,270,1.0,-999.0,61,0.00,,,0.00,Wunderground v.1.15,2013-11-12 04:00:00,
2013-11-11 23:05:00,50.0,37.1,30.17,West,270,1.0,-999.0,61,0.00,,,0.00,Wunderground v.1.15,2013-11-12 04:05:00,
2013-11-11 23:10:00,50.0,37.1,30.17,West,270,1.0,-999.0,61,0.00,,,0.00,Wunderground v.1.15,2013-11-12 04:10:00,
2013-11-11 23:15:00,49.4,36.5,30.16,West,270,1.0,-999.0,61,0.00,,,0.00,Wunderground v.1.15,2013-11-12 04:15:00,
2013-11-11 23:20:00,49.4,36.5,30.16,West,270,1.0,-999.0,61,0.00,,,0.00,Wunderground v.1.15,2013-11-12 04:20:00,
2013-11-11 23:25:00,49.4,36.5,30.16,West,270,1.0,-999.0,61,0.00,,,0.00,Wunderground v.1.15,2013-11-12 04:25:00,
2013-11-11 23:30:00,49.4,36.5,30.16,West,270,1.0,-999.0,61,0.00,,,0.00,Wunderground v.1.15,2013-11-12 04:30:00,
2013-11-11 23:35:00,49.4,36.5,30.16,West,270,1.0,-999.0,61,0.00,,,0.00,Wunderground v.1.15,2013-11-12 04:35:00,
2013-11-11 23:40:00,49.4,36.5,30.16,West,270,1.0,-999.0,61,0.00,,,0.00,Wunderground v.1.15,2013-11-12 04:40:00,
2013-11-11 23:45:00,46.9,36.1,30.15,West,270,0.0,-999.0,66,0.00,,,0.00,Wunderground v.1.15,2013-11-12 04:45:00,
2013-11-11 23:50:00,46.9,36.1,30.15,West,270,0.0,-999.0,66,0.00,,,0.00,Wunderground v.1.15,2013-11-12 04:50:00,
2013-11-11 23:55:00,46.9,36.1,30.15,West,270,0.0,-999.0,66,0.00,,,0.00,Wunderground v.1.15,2013-11-12 04:55:00,